Flag Weather past 2 weeks in Ganja, Azerbaijan

Now
45 °F

Mostly cloudy.


Feels Like: 41 °F
Forecast: 38 / 44 °F
Wind: 6 mph from West

Location: Gyanca Airport

Current Time: Nov 23, 2014 at 6:39:46 AM

Latest Report: Nov 23, 2014 at 6:00 AM


Visibility: N/A

Pressure: 29.86 "Hg

Humidity: 81%

Dew point: 39 °F

Location of GanjaLocation

Historic Weather in Ganja — Graph

°F

Ganja temperature yesterday

Maximum temperature yesterday: 48 °F (at 1:30 PM)
Minimum temperature yesterday: 45 °F (at 7:00 AM)
Average temperature yesterday: 46 °F

Past Weeks' High & Low Weather Summary

 TemperatureHumidityPressure
High59 °F (Nov 8, 3:00 PM)100% (Nov 17, 8:00 AM)30.45 "Hg (Nov 17, 8:00 AM)
Low36 °F (Nov 8, 6:30 AM)45% (Nov 8, 3:00 PM)29.83 "Hg (Nov 22, 2:30 PM)
Average47 °F81%30.24 "Hg
* Reported Nov 8 5:00 AM — Nov 23 5:30 AM, Ganja, Weather by CustomWeather, © 2014

Note: Actual official high and low records may vary slightly from our data, if they occured in-between our weather recording intervals... More about our weather records

Advertising

Ganja weather history for previous 24 hours

 ConditionsComfort  
Time TempWeatherWind HumidityBarometerVisibility
5:30 AM
Nov 23
45 °FOvercast.6 mph81%29.86 "HgN/A
5:00 AM45 °FOvercast.6 mph81%29.86 "HgN/A
4:30 AM45 °FOvercast.8 mph81%29.86 "HgN/A
4:00 AM43 °FOvercast.10 mph87%29.83 "HgN/A
3:30 AM43 °FOvercast.10 mph87%29.83 "HgN/A
3:00 AM43 °FOvercast.8 mph87%29.83 "HgN/A
2:30 AM43 °FOvercast.5 mph87%29.83 "HgN/A
2:00 AM43 °FOvercast.No wind93%29.83 "HgN/A
1:30 AM45 °FOvercast.No wind93%29.83 "HgN/A
1:00 AM45 °FOvercast.No wind93%29.83 "HgN/A
12:30 AM45 °FOvercast.No wind93%29.83 "HgN/A
12:00 AM45 °FOvercast.2 mph93%29.83 "HgN/A
11:30 PM
Nov 22
45 °FOvercast.2 mph93%29.83 "HgN/A
11:00 PM45 °FOvercast.2 mph93%29.83 "HgN/A
10:30 PM45 °FOvercast.6 mph93%29.83 "HgN/A
10:00 PM45 °FOvercast.6 mph93%29.83 "HgN/A
9:30 PM45 °FOvercast.5 mph93%29.83 "HgN/A
9:00 PM45 °FOvercast.6 mph93%29.83 "HgN/A
8:30 PM45 °FOvercast.6 mph93%29.83 "HgN/A
8:00 PM45 °FOvercast.6 mph93%29.83 "HgN/A
7:30 PM45 °FOvercast.6 mph87%29.83 "HgN/A
7:00 PM45 °FOvercast.6 mph87%29.83 "HgN/A
6:30 PM45 °FOvercast.5 mph93%29.83 "HgN/A
6:00 PM46 °FOvercast.5 mph87%29.83 "HgN/A
5:30 PM46 °FOvercast.5 mph87%29.83 "HgN/A
5:00 PM46 °FOvercast.3 mph87%29.83 "HgN/A
4:30 PM46 °FOvercast.6 mph93%29.86 "HgN/A
4:00 PM46 °FOvercast.9 mph93%29.86 "HgN/A
3:30 PM46 °FOvercast.7 mph93%29.83 "HgN/A
3:00 PM48 °FOvercast.8 mph82%29.83 "HgN/A
2:30 PM46 °FOvercast.7 mph82%29.83 "HgN/A
2:00 PM46 °FOvercast.7 mph87%29.86 "HgN/A
1:30 PM48 °FOvercast.5 mph82%29.86 "HgN/A
1:00 PM46 °FOvercast.2 mph87%29.86 "HgN/A
12:30 PM46 °FOvercast.6 mph87%29.89 "HgN/A
12:00 PM46 °FOvercast.3 mph87%29.89 "HgN/A
11:30 AM46 °FDrizzle. Overcast.2 mph87%29.92 "HgN/A
11:00 AM46 °FOvercast.No wind87%29.92 "HgN/A
10:30 AM46 °FOvercast.2 mph87%29.92 "HgN/A
10:00 AM46 °FOvercast.No wind87%29.92 "HgN/A
9:30 AM46 °FOvercast.No wind82%29.95 "Hg5 mi
9:00 AM46 °FOvercast.No wind87%29.95 "Hg5 mi
8:30 AM45 °FPassing clouds.No wind93%29.95 "HgN/A
8:00 AM45 °FPassing clouds.No wind93%29.95 "HgN/A
7:30 AM45 °FPassing clouds.2 mph93%29.95 "HgN/A
7:00 AM45 °FPassing clouds.2 mph93%29.95 "HgN/A
6:30 AM46 °FPassing clouds.No wind87%29.98 "HgN/A
6:00 AM46 °FPassing clouds.1 mph87%29.98 "HgN/A
Weather by CustomWeather, © 2014

See weather overviewHow to use our weather pages